Location: Anmer
(52.8333°N, 0.5833°E)
Time: 08:36:49
(UTC+00:00)

Daily predictions for brighter satellites

Satellite Brightness Start Highest point End
(mag) Time Altitude Azimuth Time Altitude Azimuth Time Altitude Azimuth
DNEPR-1 R/B 4.4 20:22:31 10° NW 20:27:47 74° NE 20:34:14 10° SE
ADEOS 3.9 20:27:50 10° S 20:33:02 68° WSW 20:38:15 10° NNW
Cosmos 1805 4.3 20:30:52 10° NNE 20:33:34 23° ENE 20:36:15 10° SE
Cosmos 1725 Rocket 4.3 20:29:43 10° SSW 20:35:59 76° WNW 20:42:14 10° N
NOSS 3-3 (C) 3.8 20:31:27 10° SSW 20:36:38 58° SE 20:42:52 10° NE
Cosmos 2322 Rocket 2.5 20:34:23 10° NNW 20:40:00 59° NE 20:45:36 10° SE
Cosmos 1602 Rocket 3.9 20:40:09 10° N 20:44:21 48° ENE 20:48:33 10° SSE
USA 306 1.7 20:41:33 10° W 20:44:42 73° NNW 20:46:47 10° ENE
Tsikada Rocket 4.3 20:38:33 10° NNW 20:44:42 72° W 20:50:49 10° S
Cosmos 2082 Rocket 2.4 20:40:47 10° SW 20:46:31 81° WNW 20:52:16 10° NNE
NOSS 3-4 (A) 3.8 20:40:47 10° NW 20:47:18 85° NE 20:55:02 10° SE
NOSS 3-4 (C) 3.9 20:41:25 10° NW 20:47:57 85° NE 20:55:42 10° SE
Cosmos 2016 Rocket 4.4 20:43:39 10° SSW 20:49:51 67° WNW 20:56:01 10° N
YAOGAN 11 4.2 20:47:13 10° NNE 20:51:38 63° ESE 20:56:04 10° S
CZ-4B R/B 2.8 20:49:59 10° SSE 20:53:16 53° ENE 20:56:43 10° N
Cosmos 2151 2.9 20:50:32 10° N 20:54:41 82° ENE 20:58:46 10° SSE
Cosmos 44 4.3 20:51:54 10° NW 20:57:08 46° NE 21:02:14 10° ESE
Cosmos 2237 Rocket 4.5 20:53:33 10° NNW 20:57:20 18° NNE 21:01:05 10° ENE
Cosmos 2098 Rocket 3.8 20:53:42 10° SSE 20:57:53 34° E 21:01:33 10° NNE
ATLAS 2AS CENTAUR R/B 4.2 20:51:39 10° W 20:58:02 38° NNW 21:04:21 10° NE
CZ-4C R/B 3.3 20:54:55 10° WSW 20:59:24 46° NNW 21:05:15 10° NE
Cosmos 1626 Rocket 3.9 20:56:08 10° NNW 21:00:29 67° W 21:04:50 10° S
Cosmos 1782 4.3 21:00:08 10° SW 21:03:21 33° WNW 21:06:36 10° N
Ariane Rocket 3.1 20:59:02 11° SSE 21:03:55 64° ENE 21:08:57 10° N
Cosmos 2278 3.9 21:01:30 10° NNW 21:07:14 76° WSW 21:12:37 12° SSE
Spot 2 Rocket 4.2 21:04:28 10° S 21:09:21 51° W 21:14:17 10° NNW
SL-16 R/B 2.6 21:05:39 10° NW 21:11:14 58° WSW 21:16:43 10° SSE
COSMOS 2428 4.1 21:06:44 10° NNW 21:11:43 30° NE 21:16:39 10° E
Meteor 1-5 Rocket 4.4 21:06:31 10° N 21:12:16 69° ENE 21:17:38 13° SSE
SPOT 3 Rocket 3.6 21:09:24 10° SSE 21:14:33 86° WSW 21:19:44 10° NNW
Cosmos 1763 Rocket 4.4 21:10:53 12° SSE 21:15:03 30° ESE 21:19:35 10° NE
USA 186 3.0 21:13:31 10° SSW 21:15:59 31° W 21:18:30 10° NNW
USA 290 3.1 21:18:07 17° SSE 21:19:55 28° ESE 21:22:41 10° NE
Cosmos 1606 Rocket 4.0 21:17:15 13° SSE 21:20:46 42° E 21:24:51 10° NNE
Cosmos 990 Rocket 4.3 21:16:44 10° NNW 21:21:52 59° ENE 21:26:04 15° SE
Cosmos 1513 Rocket 4.5 21:16:34 10° S 21:22:46 78° E 21:28:53 10° NNE
Cosmos 1933 3.2 21:20:44 10° SSW 21:24:32 82° W 21:28:22 10° N
Cosmos 1464 Rocket 4.1 21:18:48 10° S 21:24:47 59° E 21:30:53 10° NNE
SL-08 R/B 4.3 21:20:23 10° N 21:25:03 49° WNW 21:29:37 10° SW
ISS -3.8 21:21:45 10° W 21:25:05 72° S 21:28:15 11° E
Cosmos 1461 2.5 21:22:31 10° SW 21:26:13 90° E 21:29:54 10° NE
Helios 1B rocket 4.1 21:24:25 10° E 21:26:43 17° ENE 21:29:01 10° NNE
BREEZE-M DEB (TANK) 1.7 21:24:48 10° WSW 21:27:25 36° S 21:28:12 24° SE
CZ-4B R/B 3.4 21:23:15 13° SSE 21:27:34 80° WSW 21:32:29 10° NNW
Okean 1 3.7 21:25:54 18° SSE 21:28:09 37° E 21:31:31 10° NNE
Cosmos 1726 Rocket 4.1 21:25:49 17° SSE 21:28:28 36° E 21:32:11 10° NNE
COSMOS 2406 3.4 21:24:54 10° SW 21:30:39 77° WNW 21:36:26 10° NNE
Terra 4.2 21:28:41 10° SW 21:31:59 19° W 21:35:18 10° NW
Cosmos 1536 4.0 21:31:44 10° N 21:34:53 26° ENE 21:36:59 16° ESE
Okean O Rocket 3.2 21:31:10 10° SSW 21:34:54 29° W 21:38:41 10° NNW
Cosmos 1428 Rocket 4.5 21:30:37 10° N 21:36:53 78° ENE 21:42:00 16° SSE
Cosmos 1777 Rocket 4.3 21:34:01 10° NNW 21:39:12 64° WSW 21:43:21 16° S
Cosmos-2242 4.0 21:37:47 18° SE 21:39:52 28° E 21:43:24 10° NNE
Cosmos 1092 Rocket 4.4 21:34:44 10° N 21:40:45 50° ENE 21:45:21 17° SE
Cosmos 2333 Rocket 3.2 21:36:16 10° NW 21:41:34 40° WSW 21:46:30 12° S
Cosmos 1437 Rocket 3.5 21:38:35 10° SSW 21:42:02 47° WNW 21:45:33 10° N
Okean 1-7 Rocket 3.8 21:42:19 10° NNW 21:46:47 71° W 21:50:19 16° S
Cosmos 1503 Rocket 4.2 21:44:07 10° NNW 21:49:17 68° WSW 21:53:04 18° S
Cosmos 1833 4.4 21:44:12 10° S 21:49:34 50° ESE 21:54:59 10° NE
Cosmos 2360 Rocket 2.6 21:45:56 10° NW 21:51:29 55° WSW 21:55:44 17° S
CZ-2C R/B 2.7 21:52:45 21° SSW 21:54:14 44° W 21:56:56 10° NNW
Cosmos 1766 3.2 21:52:14 10° N 21:55:22 47° ENE 21:56:45 27° SE
Cosmos 2322 4.2 21:50:19 10° NNW 21:55:54 52° NE 22:00:18 16° ESE
Cosmos 372 Rocket 4.3 21:56:57 10° NNW 22:02:02 58° ENE 22:05:24 20° SE
Cosmos 2034 Rocket 4.0 21:58:36 15° S 22:03:56 75° E 22:10:17 10° NNE
Cosmos 2219 Rocket 2.4 21:58:38 10° NW 22:04:15 67° WSW 22:08:05 21° SSE
Cosmos 1354 Rocket 4.1 21:59:05 10° NNW 22:04:20 72° WSW 22:07:46 22° SSE
Cosmos 2221 4.2 22:03:18 15° ESE 22:04:44 18° E 22:07:33 10° NE
Cosmos 1271 Rocket 4.0 22:06:21 19° ESE 22:06:58 19° E 22:09:28 10° NE
Cosmos 1825 Rocket 4.2 22:06:33 10° NNW 22:10:45 49° W 22:13:51 17° SSW
USA 306 1.8 22:09:26 10° WNW 22:11:19 42° NW 22:11:19 42° NW
Cosmos 540 Rocket 3.4 22:07:44 15° SSW 22:12:02 70° ESE 22:17:10 10° NNE
Nadezhda 4 Rocket 4.5 22:08:58 10° NNW 22:14:55 55° W 22:20:00 14° SSW
Helios 1A 3.1 22:12:39 10° NNE 22:16:28 48° E 22:18:07 29° SSE
Cosmos 1953 Rocket 3.7 22:13:17 10° NNW 22:17:38 69° W 22:20:10 24° S
RESURS DK-1 2.6 22:14:39 10° NNW 22:18:36 59° NE 22:20:45 25° SE
Aureole 1 Rocket 4.0 22:14:20 10° NNW 22:20:04 83° WSW 22:24:34 23° SSE
Cosmos 2322 Rocket 3.5 22:18:50 10° NW 22:23:45 31° WSW 22:27:37 15° SSW
Cosmos 1707 1.8 22:23:33 47° S 22:24:14 77° E 22:27:04 10° NNE
Cosmos 1634 Rocket 4.1 22:22:33 22° S 22:26:36 64° E 22:32:45 10° NNE
Cosmos 1937 Rocket 3.9 22:21:51 10° NNW 22:26:55 53° ENE 22:30:08 21° SE
TSX-5 3.1 22:25:43 10° NW 22:28:51 81° WSW 22:29:54 40° SSE
SL-16 R/B 4.4 22:26:25 10° NNW 22:30:43 21° NNE 22:35:00 10° E
Geosat 4.1 22:27:39 10° NE 22:32:36 57° ESE 22:35:38 23° S
Cosmos 2058 Rocket 2.9 22:30:59 27° S 22:33:18 79° E 22:37:38 10° NNE
Cosmos 468 Rocket 4.1 22:30:13 23° S 22:33:29 62° ESE 22:38:40 10° NNE
Cosmos 2026 Rocket 4.3 22:30:56 10° NNW 22:37:14 64° W 22:41:40 20° S
Meteor 2-9 Rocket 4.3 22:32:55 10° N 22:38:17 64° ENE 22:41:25 26° SSE
Cosmos 44 3.9 22:33:11 10° NW 22:38:25 51° WSW 22:41:01 27° S
Cosmos 2237 Rocket 2.9 22:37:18 10° NNW 22:42:49 48° NE 22:47:09 16° ESE
CZ-2C R/B 4.2 22:39:09 11° ESE 22:43:06 26° ENE 22:47:21 10° N
Cosmos 2266 Rocket 4.4 22:40:55 10° N 22:46:47 50° ENE 22:50:26 23° SE
Cosmos 1980 4.2 22:41:34 10° NNW 22:47:07 54° NE 22:51:12 18° ESE
USA 234 4.2 22:43:07 10° ENE 22:48:17 24° SE 22:49:36 23° SE
Cosmos 1470 2.2 22:45:09 10° N 22:48:29 80° E 22:49:19 47° SSE
SeaSat 1 4.5 22:44:57 10° E 22:48:48 24° NE 22:52:39 10° NNW
CZ-4C R/B 4.3 22:44:13 10° WNW 22:48:58 31° N 22:54:58 10° ENE
ATLAS 2AS CENTAUR R/B 4.3 22:44:23 10° NW 22:50:34 35° N 22:56:42 10° ENE
USA 290 4.4 22:51:24 10° WSW 22:54:02 24° NW 22:56:40 10° N
ARIANE 5 R/B 2.7 22:52:41 31° SSE 22:54:43 71° ENE 22:59:12 10° N
Cosmos 1763 Rocket 4.2 22:51:20 10° SW 22:56:30 54° WNW 23:01:41 10° NNE
COSMOS 2428 2.7 22:50:48 10° NNW 22:56:32 76° WSW 22:59:34 29° SSE
ALOS 2 2.8 22:54:46 30° SE 22:56:47 62° ENE 23:01:09 10° N
Cosmos 2227 Rocket 4.2 22:55:49 12° ESE 22:57:29 13° E 23:00:01 10° ENE
Helios 1B rocket 2.4 22:58:18 37° SSW 22:59:21 53° WSW 23:02:48 10° NNW
ISS -2.9 22:58:34 10° W 23:01:11 33° SW 23:01:11 33° SW
Cosmos 1898 Rocket 3.5 22:56:54 10° NNW 23:02:03 68° WSW 23:04:33 31° S
CZ-2C R/B 4.3 23:01:40 10° NNE 23:06:49 32° E 23:09:26 23° SE
Meteor 1-11 Rocket 3.8 23:01:30 10° N 23:07:12 71° ENE 23:10:10 28° SSE
Cosmos 1536 3.9 23:06:50 10° NNW 23:10:07 30° W 23:11:30 23° SW
SAR-Lupe-2 3.6 23:10:57 44° SE 23:11:45 61° ENE 23:15:03 10° N
Cosmos 1238 Rocket 4.3 23:14:04 23° ESE 23:15:21 27° E 23:19:03 10° NNE
PSLV R/B 4.0 23:11:38 10° NNE 23:15:49 49° E 23:17:16 35° SSE
Cosmos-2242 4.2 23:14:02 16° SW 23:16:46 34° WNW 23:20:34 10° N
NOSS 8 (H) 3.9 23:16:26 10° NW 23:19:18 77° SW 23:19:32 70° S
Alouette 2 Rocket 4.4 23:22:26 10° N 23:26:02 42° ENE 23:28:18 24° SE
NOSS 0 Rocket 4.1 23:21:39 10° NW 23:27:45 61° WSW 23:30:49 30° S
Meteor 1-27 Rocket 4.2 23:25:49 28° SSE 23:28:35 50° E 23:34:06 10° NNE
Cosmos 841 Rocket 3.4 23:27:23 28° SSW 23:30:10 87° ESE 23:35:28 10° NNE
Cosmos 2297 Rocket 2.6 23:27:59 31° SSE 23:30:17 48° ESE 23:35:42 10° NE
Cosmos 1842 4.0 23:29:26 27° WSW 23:30:25 34° WNW 23:33:21 10° N
Cosmos 1975 3.3 23:29:02 10° NNW 23:32:33 42° W 23:33:29 34° SW
Cosmos 2142 Rocket 4.5 23:30:57 27° SSW 23:34:37 84° W 23:40:52 10° N
Spot 4 4.3 23:36:12 31° SSW 23:38:09 51° W 23:42:50 10° NNW
Cosmos 1271 Rocket 3.7 23:39:41 25° WSW 23:40:58 34° WNW 23:44:06 10° N
Cosmos 2221 2.8 23:39:35 32° SW 23:41:19 58° WNW 23:45:29 10° N
Cosmos 1812 Rocket 3.6 23:39:58 36° SSW 23:41:44 77° WNW 23:46:12 10° N
ACS3 Solar Sail 3.2 23:37:56 10° NNE 23:42:48 25° E 23:46:10 16° SE
MetOp-A 3.8 23:42:38 34° SSE 23:44:47 89° ENE 23:49:25 10° NNW
Helios 1B 4.4 23:42:33 10° NNE 23:46:50 90° E 23:48:25 38° SSW
Cosmos 2219 Rocket 4.3 23:44:37 10° WNW 23:47:08 13° W 23:49:37 10° WSW
NOSS 8 (E) 4.3 23:47:04 10° NW 23:49:44 54° WSW 23:49:44 54° WSW
RESURS DK-1 4.0 23:52:43 10° WNW 23:55:35 19° WSW 23:55:58 19° WSW
